THORAD AGENA D DEB, 42534

Orbit data source: Space-Track

THORAD AGENA D DEB, 42534 is space debris in SSO originally from a launch on Wed, 08 Apr 1970 UTC launched from the Air Force Western Test Range (AFWTR). Debris objects in space refer to the collection of defunct objects orbiting the Earth. Examples of debris include non-operational satellites, rocket bodies, and fragments generated from explosions, collisions, or faulty payload assembly.

Loading next visibility...
Identifier
42534, 1970-025SQ
Orbit
SSO
Last TLE update
4 days ago
Origin
Manufacturer
Unknown
Mission
Spacecraft
Bus & Motor
Unknown
Mass
Unknown
Launch date (UTC)
1970-04-08 (55 years ago)
Launch vehicle
Unknown
Launch site
Air Force Western Test Range (AFWTR)
Object type
Payload
Rocket body
Debris
Shape & HBR
Unknown
Radar Cross Section
Small (<0.1 m²)

Expand to show TLE details & history

TLE from 4 days ago
0 THORAD AGENA D DEB
1 42534U 70025SQ  25183.17024047 -.00000282  00000-0 -75602-3 0  9993
2 42534 101.7397 260.1400 0195188 103.6144 258.6771 12.95484270543002
Epoch: 2025-07-02T04:05Z
TLE epoch observation values (Epoch: 2025-07-02T04:05:08.776Z)
Latitude
-0.00007°
Longitude
-81.60174°
Altitude
1,314.613 km
Speed
7.185 km/s
True Right ascension
17h 20m 33s
True Declination
0° 00' 00"
Sunlit
Object was in full shadow at epoch
Visualization orbit readout
Latitude
16.81811°
Longitude
-81.05559°
Altitude
1,248.913 km
Speed
7.248 km/s
Apparent Right ascension
20h 00m 52s
Apparent Declination
-14° 38' 43"
Sunlit
Object is in full shadow
Visualization observer readout
Local Sidereal Time
12:47:16
Azimuth
89.872° E
Elevation
-23.359°
Doppler factor
1
Orbital elements
Apogee altitude
1,426.745 km
Perigee altitude
1,127.895 km
Semi-major axis
7,655.457 km
Eccentricity
0.01952
Inclination
101.7397°
RAAN
260.14°
Arg. of periapsis
103.6144°
True anomaly
Unknown
Mean anomaly
258.6771°
Eccentric anomaly
Unknown
Mean motion
3.24031 °/min
Orbital period
111.1 mins
BSTAR
-0.00075602
Loading maneuver chart data...
Loading SW <> Apogee altitude chart data...

THORAD AGENA D DEB Visibility forecast

Observer location: undefined°, undefined°

Span
Click to sort rows by Start time (UTC) header in descending order
Start Az.
Max El. time (UTC)
Max El. Az.
Max El.
End time (UTC)
End Az.
4 mins2025-07-06 02:50:40.985Z67.264° ENE2025-07-06 02:52:40.985Z49.669° ENE12.304°2025-07-06 02:54:40.985Z31.914° NE
12 mins2025-07-06 04:34:40.985Z147.647° SSE2025-07-06 04:40:40.985Z69.482° E42.768°2025-07-06 04:46:40.985Z349.196° N
8 mins2025-07-06 06:26:40.985Z227.69° WSW2025-07-06 06:30:40.985Z267.951° W19.918°2025-07-06 06:34:40.985Z306.583° NW
12 mins2025-07-06 18:02:40.985Z22.331° NNE2025-07-06 18:08:40.985Z140.071° SSE43.659°2025-07-06 18:14:40.985Z191.635° SSW
8 mins2025-07-06 19:53:40.985Z337.036° NNW2025-07-06 19:56:40.985Z305.553° NW19.653°2025-07-06 20:01:40.985Z259.242° W
|